| time (UTC) | temp F | wind direction | speed MPH | gust MPH | rain 1hr in | rain 24hr in | rain mn in | humidity % | barometer mb |
| 20260831015351 | 80 | 0 | 2.0 | 4.0 | 0.00 | 0.14 | 0.14 | 85 | 1016.4 |
| 20260831014851 | 0 | 0.0 | 0.0 | 0.00 | 0.14 | 0.14 | |||
| 20260831014331 | 0 | 0.0 | 0.0 | 0.00 | 0.14 | 0.14 | |||
| 20260831013831 | 0 | 0.0 | 0.0 | 0.00 | 0.14 | 0.14 | |||
| 20260831013330 | 80 | 0 | 2.0 | 0.0 | 0.00 | 0.14 | 0.14 | 85 | 1016.4 |
| 20260831012830 | 80 | 0 | 2.0 | 4.0 | 0.00 | 0.14 | 0.14 | 85 | 1016.4 |
| 20260831012333 | 80 | 0 | 2.0 | 4.0 | 0.00 | 0.15 | 0.14 | 85 | 1016.4 |
| 20260831011830 | 80 | 28 | 2.0 | 4.0 | 0.00 | 0.15 | 0.14 | 85 | 1016.4 |
| 20260831011302 | 81 | 37 | 2.0 | 4.0 | 0.00 | 0.15 | 0.14 | 84 | 1016.3 |
| 20260831010803 | 0 | 0 | 0.0 | 0.0 | 0.00 | 0.16 | 0.14 | ||
| 20260831005802 | 0 | 0.0 | 0.0 | 0.00 | 0.16 | 0.14 | |||
| 20260831005302 | 0 | 0.0 | 0.0 | 0.00 | 0.16 | 0.14 | |||
| 20260831004756 | 0 | 0.0 | 0.0 | 0.00 | 0.17 | 0.14 | |||
| 20260831004231 | 81 | 5 | 1.0 | 0.0 | 0.00 | 0.17 | 0.14 | 84 | 1016.1 |
| 20260831003730 | 81 | 5 | 1.0 | 3.0 | 0.00 | 0.17 | 0.14 | 84 | 1016.1 |
| 20260831003233 | 81 | 5 | 1.0 | 3.0 | 0.00 | 0.17 | 0.14 | 84 | 1016.1 |
| 20260831002729 | 81 | 61 | 1.0 | 3.0 | 0.00 | 0.17 | 0.14 | 84 | 1016.0 |
| 20260831002229 | 81 | 0 | 1.0 | 3.0 | 0.00 | 0.17 | 0.14 | 83 | 1016.1 |
| 20260831001729 | 81 | 39 | 1.0 | 3.0 | 0.00 | 0.17 | 0.14 | 83 | 1016.0 |
| 20260831001229 | 81 | 0 | 1.0 | 4.0 | 0.00 | 0.17 | 0.14 | 83 | 1016.0 |
| 20260831000229 | 82 | 35 | 1.0 | 3.0 | 0.00 | 0.17 | 0.14 | 81 | 1015.9 |
| 20260830235730 | 82 | 19 | 2.0 | 3.0 | 0.00 | 0.17 | 0.14 | 81 | 1016.0 |
| 20260830235230 | 82 | 15 | 2.0 | 5.0 | 0.00 | 0.17 | 0.14 | 80 | 1016.0 |
| 20260830234721 | 83 | 84 | 1.0 | 5.0 | 0.00 | 0.17 | 0.14 | 79 | 1015.9 |
| 20260830234217 | 83 | 0 | 1.0 | 4.0 | 0.00 | 0.17 | 0.14 | 78 | 1015.9 |
| 20260830233217 | 83 | 0 | 2.0 | 5.0 | 0.00 | 0.17 | 0.14 | 77 | 1015.9 |
| 20260830232717 | 83 | 0 | 2.0 | 6.0 | 0.00 | 0.17 | 0.14 | 77 | 1015.8 |
| 20260830232217 | 83 | 0 | 2.0 | 6.0 | 0.00 | 0.17 | 0.14 | 77 | 1015.9 |
| 20260830230715 | 84 | 53 | 3.0 | 8.0 | 0.00 | 0.17 | 0.14 | 76 | 1015.7 |
| 20260830225715 | 84 | 114 | 2.0 | 7.0 | 0.00 | 0.17 | 0.14 | 76 | 1015.7 |
| 20260830224715 | 84 | 46 | 2.0 | 7.0 | 0.00 | 0.17 | 0.14 | 77 | 1015.6 |
| 20260830223715 | 84 | 38 | 3.0 | 8.0 | 0.00 | 0.17 | 0.14 | 78 | 1015.6 |
| 20260830223214 | 84 | 0 | 4.0 | 8.0 | 0.00 | 0.17 | 0.14 | 77 | 1015.6 |
| 20260830222216 | 84 | 48 | 6.0 | 13.0 | 0.00 | 0.17 | 0.14 | 75 | 1015.5 |
| 20260830221712 | 85 | 34 | 4.0 | 9.0 | 0.00 | 0.17 | 0.14 | 74 | 1015.4 |
| 20260830221214 | 85 | 42 | 4.0 | 12.0 | 0.00 | 0.17 | 0.14 | 74 | 1015.4 |
| 20260830220713 | 85 | 69 | 5.0 | 12.0 | 0.00 | 0.17 | 0.14 | 74 | 1015.3 |
| 20260830220213 | 85 | 29 | 5.0 | 11.0 | 0.00 | 0.17 | 0.14 | 74 | 1015.2 |
| 20260830215712 | 85 | 81 | 6.0 | 11.0 | 0.00 | 0.17 | 0.14 | 73 | 1015.2 |
| 20260830215213 | 86 | 59 | 5.0 | 10.0 | 0.00 | 0.17 | 0.14 | 72 | 1015.1 |
| 20260830214713 | 86 | 95 | 4.0 | 9.0 | 0.00 | 0.17 | 0.14 | 73 | 1015.2 |
| 20260830214213 | 86 | 31 | 4.0 | 9.0 | 0.00 | 0.17 | 0.14 | 73 | 1015.2 |
| 20260830213714 | 86 | 49 | 5.0 | 11.0 | 0.00 | 0.17 | 0.14 | 73 | 1015.2 |
| 20260830213213 | 86 | 26 | 5.0 | 11.0 | 0.00 | 0.17 | 0.14 | 72 | 1015.1 |
| 20260830212712 | 86 | 50 | 5.0 | 11.0 | 0.00 | 0.17 | 0.14 | 71 | 1015.1 |
| 20260830211708 | 85 | 107 | 4.0 | 8.0 | 0.00 | 0.17 | 0.14 | 71 | 1015.1 |
| 20260830211209 | 86 | 148 | 3.0 | 8.0 | 0.00 | 0.17 | 0.14 | 71 | 1015.1 |
| 20260830210707 | 86 | 33 | 4.0 | 8.0 | 0.00 | 0.18 | 0.14 | 70 | 1015.1 |
| 20260830210206 | 86 | 124 | 3.0 | 10.0 | 0.00 | 0.19 | 0.14 | 70 | 1015.1 |
| 20260830205702 | 86 | 83 | 4.0 | 11.0 | 0.00 | 0.19 | 0.14 | 70 | 1015.2 |
| 20260830205202 | 86 | 24 | 4.0 | 11.0 | 0.00 | 0.19 | 0.14 | 70 | 1015.3 |
| 20260830204702 | 87 | 54 | 4.0 | 10.0 | 0.00 | 0.19 | 0.14 | 69 | 1015.4 |
| 20260830204203 | 87 | 126 | 4.0 | 10.0 | 0.00 | 0.19 | 0.14 | 67 | 1015.2 |
| 20260830203702 | 87 | 109 | 5.0 | 10.0 | 0.00 | 0.19 | 0.14 | 67 | 1015.2 |
| 20260830203202 | 87 | 93 | 5.0 | 10.0 | 0.00 | 0.19 | 0.14 | 67 | 1015.2 |
| 20260830202702 | 87 | 8 | 5.0 | 9.0 | 0.00 | 0.19 | 0.14 | 66 | 1015.4 |
| 20260830202201 | 87 | 77 | 5.0 | 12.0 | 0.00 | 0.19 | 0.14 | 65 | 1015.3 |
| 20260830201700 | 87 | 105 | 5.0 | 12.0 | 0.00 | 0.19 | 0.14 | 66 | 1015.5 |
| 20260830201200 | 88 | 122 | 5.0 | 9.0 | 0.00 | 0.19 | 0.14 | 65 | 1015.6 |
| 20260830200703 | 88 | 19 | 5.0 | 11.0 | 0.00 | 0.19 | 0.14 | 64 | 1015.6 |
| 20260830200200 | 88 | 305 | 5.0 | 11.0 | 0.00 | 0.19 | 0.14 | 65 | 1015.7 |
| 20260830195701 | 88 | 26 | 5.0 | 11.0 | 0.00 | 0.19 | 0.14 | 66 | 1015.8 |
| 20260830195201 | 88 | 115 | 5.0 | 11.0 | 0.01 | 0.19 | 0.14 | 66 | 1015.9 |
| 20260830194701 | 87 | 48 | 5.0 | 10.0 | 0.01 | 0.19 | 0.14 | 66 | 1016.0 |
| 20260830194200 | 87 | 121 | 5.0 | 10.0 | 0.01 | 0.19 | 0.14 | 66 | 1016.0 |
| 20260830193700 | 86 | 130 | 4.0 | 9.0 | 0.01 | 0.19 | 0.14 | 66 | 1016.1 |
| 20260830193200 | 86 | 26 | 3.0 | 9.0 | 0.01 | 0.19 | 0.14 | 66 | 1016.1 |
| 20260830192700 | 85 | 13 | 3.0 | 5.0 | 0.01 | 0.19 | 0.14 | 70 | 1016.1 |
| 20260830192200 | 85 | 13 | 2.0 | 5.0 | 0.01 | 0.19 | 0.14 | 71 | 1016.1 |
| 20260830190700 | 85 | 0 | 3.0 | 9.0 | 0.01 | 0.19 | 0.14 | 71 | 1016.1 |
| 20260830190159 | 86 | 24 | 4.0 | 11.0 | 0.01 | 0.19 | 0.14 | 69 | 1016.0 |
| 20260830185659 | 87 | 91 | 5.0 | 12.0 | 0.00 | 0.18 | 0.14 | 67 | 1016.0 |
| 20260830184655 | 89 | 47 | 5.0 | 10.0 | 0.00 | 0.18 | 0.13 | 64 | 1016.0 |
| 20260830184154 | 88 | 15 | 3.0 | 9.0 | 0.00 | 0.18 | 0.13 | 63 | 1016.1 |
| 20260830183655 | 88 | 130 | 2.0 | 7.0 | 0.00 | 0.18 | 0.13 | 64 | 1016.1 |
| 20260830183155 | 88 | 144 | 2.0 | 7.0 | 0.00 | 0.18 | 0.13 | 63 | 1016.2 |
| 20260830182655 | 88 | 7 | 3.0 | 7.0 | 0.00 | 0.18 | 0.13 | 65 | 1016.2 |
| 20260830182154 | 90 | 49 | 3.0 | 8.0 | 0.00 | 0.18 | 0.13 | 61 | 1016.4 |
| 20260830181653 | 90 | 318 | 4.0 | 8.0 | 0.00 | 0.18 | 0.13 | 59 | 1016.4 |
| 20260830181152 | 89 | 356 | 4.0 | 9.0 | 0.00 | 0.18 | 0.13 | 60 | 1016.4 |
| 20260830180149 | 91 | 84 | 3.0 | 9.0 | 0.00 | 0.18 | 0.13 | 57 | 1016.4 |
| 20260830175653 | 91 | 25 | 2.0 | 9.0 | 0.00 | 0.18 | 0.13 | 58 | 1016.5 |
| 20260830175150 | 90 | 282 | 2.0 | 6.0 | 0.00 | 0.18 | 0.13 | 58 | 1016.5 |
| 20260830174650 | 90 | 74 | 2.0 | 7.0 | 0.00 | 0.18 | 0.13 | 58 | 1016.5 |
| 20260830174150 | 90 | 47 | 3.0 | 8.0 | 0.00 | 0.18 | 0.13 | 60 | 1016.6 |
| 20260830173650 | 89 | 4 | 4.0 | 9.0 | 0.00 | 0.18 | 0.13 | 57 | 1016.7 |
| 20260830173150 | 89 | 332 | 3.0 | 9.0 | 0.00 | 0.18 | 0.13 | 61 | 1016.7 |
| 20260830172650 | 89 | 17 | 2.0 | 9.0 | 0.00 | 0.18 | 0.13 | 60 | 1016.8 |
| 20260830171649 | 87 | 31 | 2.0 | 7.0 | 0.00 | 0.18 | 0.13 | 59 | 1016.9 |
| 20260830171148 | 87 | 25 | 2.0 | 7.0 | 0.00 | 0.18 | 0.13 | 63 | 1017.0 |
| 20260830170649 | 88 | 31 | 2.0 | 7.0 | 0.00 | 0.18 | 0.13 | 62 | 1017.0 |
| 20260830170149 | 89 | 110 | 2.0 | 8.0 | 0.00 | 0.18 | 0.13 | 61 | 1017.1 |
| 20260830165649 | 89 | 0 | 2.0 | 8.0 | 0.00 | 0.18 | 0.13 | 58 | 1017.1 |
| 20260830165149 | 88 | 24 | 3.0 | 6.0 | 0.00 | 0.18 | 0.13 | 60 | 1017.1 |
| 20260830164648 | 87 | 26 | 3.0 | 6.0 | 0.00 | 0.18 | 0.13 | 64 | 1017.3 |
| 20260830164149 | 89 | 71 | 3.0 | 8.0 | 0.00 | 0.18 | 0.13 | 64 | 1017.4 |
| 20260830163649 | 89 | 350 | 2.0 | 8.0 | 0.00 | 0.18 | 0.13 | 61 | 1017.5 |
| 20260830163150 | 89 | 84 | 2.0 | 6.0 | 0.00 | 0.18 | 0.13 | 57 | 1017.6 |
| 20260830162649 | 88 | 135 | 2.0 | 7.0 | 0.00 | 0.18 | 0.13 | 64 | 1017.7 |
| 20260830162149 | 88 | 56 | 3.0 | 7.0 | 0.00 | 0.18 | 0.13 | 65 | 1017.7 |
| 20260830161648 | 88 | 0 | 2.0 | 7.0 | 0.00 | 0.18 | 0.13 | 68 | 1017.8 |
| 20260830161147 | 87 | 355 | 2.0 | 6.0 | 0.00 | 0.18 | 0.13 | 68 | 1017.8 |
| 20260830160648 | 87 | 125 | 1.0 | 4.0 | 0.00 | 0.18 | 0.13 | 66 | 1017.8 |
| 20260830160147 | 86 | 0 | 2.0 | 4.0 | 0.00 | 0.18 | 0.13 | 70 | 1017.8 |
| 20260830155643 | 85 | 200 | 2.0 | 5.0 | 0.00 | 0.18 | 0.13 | 70 | 1017.8 |
| 20260830155142 | 85 | 143 | 3.0 | 6.0 | 0.00 | 0.18 | 0.13 | 69 | 1017.8 |
| 20260830154143 | 85 | 97 | 2.0 | 7.0 | 0.00 | 0.18 | 0.13 | 70 | 1017.8 |
| 20260830153644 | 86 | 78 | 2.0 | 6.0 | 0.00 | 0.18 | 0.13 | 69 | 1017.8 |
| 20260830153144 | 86 | 0 | 2.0 | 6.0 | 0.00 | 0.18 | 0.13 | 69 | 1017.8 |
| 20260830152644 | 86 | 277 | 2.0 | 5.0 | 0.00 | 0.18 | 0.13 | 72 | 1017.9 |
| 20260830152145 | 87 | 117 | 2.0 | 5.0 | 0.00 | 0.18 | 0.13 | 69 | 1017.9 |
| 20260830151645 | 86 | 64 | 2.0 | 5.0 | 0.00 | 0.18 | 0.13 | 72 | 1017.9 |
| 20260830151141 | 87 | 34 | 2.0 | 6.0 | 0.00 | 0.18 | 0.13 | 73 | 1017.9 |
| 20260830150640 | 86 | 329 | 1.0 | 6.0 | 0.00 | 0.18 | 0.13 | 69 | 1017.9 |
| 20260830150137 | 85 | 136 | 2.0 | 7.0 | 0.00 | 0.18 | 0.13 | 76 | 1017.9 |
| 20260830145637 | 85 | 91 | 2.0 | 7.0 | 0.00 | 0.18 | 0.13 | 76 | 1017.9 |
| 20260830145139 | 84 | 47 | 2.0 | 5.0 | 0.00 | 0.18 | 0.13 | 78 | 1017.9 |
| 20260830144639 | 83 | 204 | 2.0 | 7.0 | 0.00 | 0.18 | 0.13 | 81 | 1018.0 |
| 20260830144139 | 83 | 141 | 3.0 | 7.0 | 0.00 | 0.18 | 0.13 | 80 | 1017.9 |
| 20260830143138 | 83 | 36 | 2.0 | 7.0 | 0.00 | 0.18 | 0.13 | 82 | 1017.8 |
| 20260830142139 | 83 | 60 | 2.0 | 7.0 | 0.00 | 0.18 | 0.13 | 81 | 1017.8 |
| 20260830141139 | 81 | 0 | 2.0 | 4.0 | 0.00 | 0.18 | 0.13 | 84 | 1017.8 |
| 20260830140636 | 81 | 149 | 3.0 | 7.0 | 0.00 | 0.18 | 0.13 | 84 | 1017.9 |
| 20260830140132 | 82 | 143 | 2.0 | 7.0 | 0.00 | 0.18 | 0.13 | 84 | 1017.9 |
| 20260830135130 | 81 | 25 | 2.0 | 6.0 | 0.00 | 0.18 | 0.13 | 85 | 1017.8 |
| 20260830134630 | 82 | 137 | 2.0 | 6.0 | 0.00 | 0.18 | 0.13 | 83 | 1017.8 |
| 20260830133630 | 80 | 0 | 2.0 | 6.0 | 0.00 | 0.18 | 0.13 | 86 | 1017.9 |
| 20260830133130 | 80 | 32 | 1.0 | 6.0 | 0.00 | 0.18 | 0.13 | 87 | 1018.0 |
| 20260830132630 | 80 | 97 | 2.0 | 6.0 | 0.00 | 0.18 | 0.13 | 86 | 1018.0 |
| 20260830132130 | 79 | 0 | 2.0 | 7.0 | 0.00 | 0.18 | 0.13 | 87 | 1018.0 |
| 20260830131631 | 79 | 23 | 2.0 | 7.0 | 0.00 | 0.18 | 0.13 | 87 | 1017.9 |
| 20260830131130 | 79 | 318 | 2.0 | 6.0 | 0.00 | 0.17 | 0.13 | 87 | 1017.8 |
| 20260830130630 | 78 | 38 | 2.0 | 5.0 | 0.00 | 0.17 | 0.13 | 89 | 1017.8 |
| 20260830130129 | 78 | 94 | 2.0 | 3.0 | 0.00 | 0.17 | 0.13 | 88 | 1017.7 |
| 20260830125629 | 78 | 151 | 2.0 | 3.0 | 0.00 | 0.17 | 0.13 | 88 | 1017.7 |
| 20260830125129 | 78 | 207 | 1.0 | 3.0 | 0.00 | 0.17 | 0.13 | 90 | 1017.6 |
| 20260830124628 | 77 | 82 | 1.0 | 3.0 | 0.00 | 0.17 | 0.13 | 92 | 1017.5 |
| 20260830123629 | 76 | 227 | 2.0 | 4.0 | 0.00 | 0.17 | 0.13 | 93 | 1017.4 |
| 20260830123130 | 76 | 30 | 2.0 | 4.0 | 0.00 | 0.17 | 0.13 | 94 | 1017.5 |
| 20260830122629 | 76 | 147 | 2.0 | 5.0 | 0.00 | 0.17 | 0.13 | 94 | 1017.5 |
| 20260830121628 | 76 | 26 | 2.0 | 5.0 | 0.00 | 0.17 | 0.13 | 94 | 1017.3 |
| 20260830121128 | 76 | 11 | 3.0 | 6.0 | 0.00 | 0.17 | 0.13 | 94 | 1017.3 |
| 20260830120628 | 76 | 47 | 3.0 | 6.0 | 0.00 | 0.17 | 0.13 | 94 | 1017.3 |
| 20260830120129 | 76 | 21 | 3.0 | 5.0 | 0.00 | 0.17 | 0.13 | 94 | 1017.3 |
| 20260830115629 | 76 | 16 | 3.0 | 5.0 | 0.00 | 0.17 | 0.13 | 94 | 1017.2 |
| 20260830115130 | 76 | 32 | 2.0 | 4.0 | 0.00 | 0.17 | 0.13 | 94 | 1017.2 |
| 20260830114129 | 76 | 13 | 2.0 | 4.0 | 0.00 | 0.17 | 0.13 | 94 | 1017.1 |
| 20260830113632 | 76 | 17 | 3.0 | 5.0 | 0.00 | 0.17 | 0.13 | 94 | 1017.1 |
| 20260830113129 | 76 | 240 | 3.0 | 5.0 | 0.00 | 0.17 | 0.13 | 94 | 1017.1 |
| 20260830112629 | 76 | 349 | 3.0 | 5.0 | 0.00 | 0.17 | 0.13 | 94 | 1017.0 |
| 20260830112129 | 75 | 3 | 3.0 | 5.0 | 0.00 | 0.17 | 0.13 | 94 | 1017.0 |
| 20260830111628 | 75 | 22 | 3.0 | 5.0 | 0.00 | 0.17 | 0.13 | 94 | 1016.9 |
| 20260830111128 | 75 | 334 | 3.0 | 5.0 | 0.00 | 0.17 | 0.13 | 94 | 1016.9 |
| 20260830110629 | 76 | 1 | 3.0 | 5.0 | 0.00 | 0.17 | 0.13 | 94 | 1016.9 |
| 20260830110127 | 76 | 12 | 3.0 | 4.0 | 0.00 | 0.17 | 0.13 | 94 | 1016.9 |
| 20260830105628 | 76 | 346 | 3.0 | 4.0 | 0.00 | 0.17 | 0.13 | 94 | 1016.8 |
| 20260830105127 | 76 | 8 | 3.0 | 4.0 | 0.00 | 0.17 | 0.13 | 94 | 1016.8 |
| 20260830104628 | 76 | 8 | 1.0 | 4.0 | 0.00 | 0.17 | 0.13 | 94 | 1016.6 |
| 20260830104128 | 76 | 325 | 1.0 | 2.0 | 0.00 | 0.17 | 0.13 | 94 | 1016.5 |
| 20260830102629 | 76 | 28 | 2.0 | 3.0 | 0.00 | 0.17 | 0.13 | 93 | 1016.4 |
| 20260830102129 | 76 | 319 | 2.0 | 4.0 | 0.00 | 0.17 | 0.13 | 93 | 1016.3 |
| 20260830101629 | 76 | 248 | 2.0 | 4.0 | 0.00 | 0.17 | 0.13 | 93 | 1016.4 |
| 20260830101129 | 76 | 250 | 1.0 | 2.0 | 0.00 | 0.17 | 0.13 | 93 | 1016.4 |
| 20260830100128 | 76 | 0 | 1.0 | 4.0 | 0.00 | 0.17 | 0.13 | 93 | 1016.2 |
| 20260830095628 | 76 | 0 | 2.0 | 4.0 | 0.00 | 0.17 | 0.13 | 93 | 1016.2 |
| 20260830094614 | 76 | 19 | 1.0 | 3.0 | 0.00 | 0.17 | 0.13 | 93 | 1016.0 |
| 20260830094114 | 76 | 201 | 0.0 | 2.0 | 0.01 | 0.17 | 0.13 | 93 | 1016.0 |
| 20260830093614 | 76 | 325 | 0.0 | 2.0 | 0.07 | 0.17 | 0.13 | 93 | 1015.9 |
| 20260830093113 | 76 | 0 | 0.0 | 1.0 | 0.13 | 0.17 | 0.13 | 93 | 1015.9 |
| 20260830092614 | 76 | 0 | 0.0 | 2.0 | 0.13 | 0.17 | 0.13 | 93 | 1015.9 |
| 20260830092113 | 76 | 0 | 1.0 | 2.0 | 0.13 | 0.17 | 0.13 | 93 | 1015.8 |
| 20260830091614 | 76 | 351 | 2.0 | 3.0 | 0.13 | 0.17 | 0.13 | 93 | 1015.8 |
| 20260830091114 | 76 | 1 | 2.0 | 4.0 | 0.13 | 0.17 | 0.13 | 93 | 1015.9 |
| 20260830085601 | 76 | 346 | 4.0 | 5.0 | 0.13 | 0.17 | 0.13 | 93 | 1016.1 |
| 20260830084601 | 76 | 32 | 2.0 | 4.0 | 0.13 | 0.17 | 0.13 | 93 | 1016.3 |
| 20260830084102 | 76 | 110 | 2.0 | 5.0 | 0.12 | 0.17 | 0.12 | 93 | 1016.3 |
| 20260830083600 | 76 | 91 | 2.0 | 5.0 | 0.06 | 0.11 | 0.06 | 93 | 1016.4 |
| 20260830082101 | 76 | 179 | 2.0 | 3.0 | 0.00 | 0.04 | 0.00 | 93 | 1016.4 |
| 20260830081600 | 76 | 357 | 2.0 | 3.0 | 0.00 | 0.04 | 0.00 | 93 | 1016.4 |
| 20260830080600 | 76 | 334 | 3.0 | 4.0 | 0.00 | 0.04 | 0.00 | 93 | 1016.4 |
| 20260830075603 | 76 | 354 | 1.0 | 3.0 | 0.00 | 0.04 | 0.00 | 93 | 1016.7 |
| 20260830075100 | 76 | 11 | 1.0 | 2.0 | 0.00 | 0.04 | 0.00 | 93 | 1016.7 |
| 20260830074601 | 76 | 0 | 0.0 | 2.0 | 0.00 | 0.04 | 0.00 | 93 | 1016.7 |
| 20260830074101 | 76 | 208 | 0.0 | 2.0 | 0.00 | 0.04 | 0.00 | 93 | 1016.8 |
| 20260830073600 | 77 | 0 | 0.0 | 1.0 | 0.00 | 0.04 | 0.00 | 93 | 1016.9 |
| 20260830073103 | 77 | 0 | 0.0 | 2.0 | 0.00 | 0.04 | 0.00 | 93 | 1017.0 |
| 20260830071100 | 77 | 325 | 0.0 | 1.0 | 0.00 | 0.04 | 0.00 | 93 | 1017.0 |
| 20260830070601 | 77 | 0 | 0.0 | 1.0 | 0.00 | 0.04 | 0.00 | 93 | 1017.0 |
| 20260830070100 | 77 | 111 | 0.0 | 1.0 | 0.00 | 0.04 | 0.00 | 93 | 1017.0 |
| 20260830065601 | 77 | 0 | 0.0 | 1.0 | 0.00 | 0.04 | 0.00 | 93 | 1016.8 |
| 20260830065103 | 77 | 0 | 0.0 | 1.0 | 0.00 | 0.04 | 0.00 | 93 | 1016.8 |
| 20260830064602 | 77 | 191 | 1.0 | 3.0 | 0.00 | 0.04 | 0.00 | 93 | 1016.7 |
| 20260830064100 | 77 | 0 | 1.0 | 3.0 | 0.00 | 0.04 | 0.00 | 93 | 1016.6 |
| 20260830063604 | 76 | 204 | 1.0 | 2.0 | 0.00 | 0.04 | 0.00 | 93 | 1016.6 |
| 20260830063101 | 76 | 351 | 1.0 | 2.0 | 0.00 | 0.04 | 0.00 | 93 | 1016.6 |
| 20260830062601 | 77 | 0 | 2.0 | 4.0 | 0.00 | 0.04 | 0.00 | 93 | 1016.6 |
| 20260830062105 | 77 | 20 | 2.0 | 4.0 | 0.00 | 0.04 | 0.00 | 93 | 1016.6 |
| 20260830061601 | 77 | 11 | 2.0 | 4.0 | 0.00 | 0.04 | 0.00 | 93 | 1016.5 |
| 20260830061100 | 77 | 279 | 2.0 | 4.0 | 0.00 | 0.04 | 0.00 | 93 | 1016.5 |
| 20260830060600 | 77 | 346 | 0.0 | 2.0 | 0.00 | 0.04 | 0.00 | 93 | 1016.5 |
| 20260830054105 | 77 | 358 | 1.0 | 2.0 | 0.00 | 0.04 | 0.00 | 92 | 1016.4 |
| 20260830053601 | 77 | 356 | 1.0 | 2.0 | 0.00 | 0.04 | 0.00 | 92 | 1016.5 |
| 20260830053101 | 77 | 354 | 1.0 | 2.0 | 0.00 | 0.04 | 0.00 | 92 | 1016.5 |
| 20260830052605 | 77 | 0 | 1.0 | 2.0 | 0.00 | 0.04 | 0.00 | 92 | 1016.4 |
| 20260830052101 | 77 | 357 | 1.0 | 2.0 | 0.00 | 0.04 | 0.00 | 92 | 1016.3 |
| 20260830051602 | 77 | 0 | 0.0 | 1.0 | 0.00 | 0.04 | 0.00 | 91 | 1016.3 |
| 20260830051102 | 77 | 213 | 0.0 | 1.0 | 0.00 | 0.04 | 0.00 | 91 | 1016.2 |
| 20260830050602 | 77 | 0 | 0.0 | 1.0 | 0.00 | 0.04 | 0.00 | 91 | 1016.2 |
| 20260830044600 | 78 | 0 | 1.0 | 2.0 | 0.00 | 0.04 | 0.00 | 90 | 1016.0 |
| 20260830044102 | 79 | 255 | 1.0 | 3.0 | 0.00 | 0.04 | 0.00 | 89 | 1016.0 |
| 20260830043602 | 79 | 16 | 1.0 | 3.0 | 0.00 | 0.04 | 0.00 | 89 | 1016.0 |
| 20260830043103 | 79 | 0 | 0.0 | 0.0 | 0.00 | 0.04 | 0.00 | 88 | 1016.1 |
| 20260830042602 | 79 | 0 | 0.0 | 2.0 | 0.00 | 0.04 | 0.00 | 88 | 1016.1 |
| 20260830042102 | 79 | 0 | 0.0 | 2.0 | 0.00 | 0.04 | 0.00 | 88 | 1016.1 |
| 20260830040602 | 79 | 0 | 0.0 | 2.0 | 0.00 | 0.04 | 0.00 | 88 | 1016.3 |
| 20260830035602 | 79 | 126 | 1.0 | 2.0 | 0.00 | 0.04 | 0.04 | 89 | 1016.4 |
| 20260830035102 | 79 | 0 | 0.0 | 0.0 | 0.00 | 0.04 | 0.04 | 89 | 1016.4 |
| 20260830034602 | 79 | 0 | 0.0 | 1.0 | 0.00 | 0.04 | 0.04 | 89 | 1016.4 |
| 20260830034102 | 79 | 0 | 0.0 | 1.0 | 0.00 | 0.04 | 0.04 | 89 | 1016.6 |
| 20260830033602 | 79 | 0 | 0.0 | 2.0 | 0.00 | 0.04 | 0.04 | 89 | 1016.6 |
| 20260830033101 | 79 | 0 | 0.0 | 3.0 | 0.00 | 0.04 | 0.04 | 89 | 1016.7 |
| 20260830032602 | 79 | 0 | 1.0 | 4.0 | 0.00 | 0.04 | 0.04 | 90 | 1016.8 |
| 20260830032102 | 79 | 353 | 1.0 | 4.0 | 0.00 | 0.04 | 0.04 | 90 | 1016.9 |
| 20260830031602 | 79 | 263 | 0.0 | 3.0 | 0.00 | 0.04 | 0.04 | 89 | 1016.9 |
| 20260830031102 | 79 | 243 | 0.0 | 2.0 | 0.00 | 0.04 | 0.04 | 89 | 1017.0 |
| 20260830030601 | 79 | 0 | 1.0 | 2.0 | 0.00 | 0.04 | 0.04 | 89 | 1017.1 |
| 20260830025052 | 80 | 0 | 0.0 | 0.0 | 0.00 | 0.04 | 0.04 | 88 | 1017.4 |
| 20260830024550 | 80 | 0 | 0.0 | 1.0 | 0.00 | 0.04 | 0.04 | 88 | 1017.5 |
| 20260830024051 | 80 | 0 | 1.0 | 2.0 | 0.00 | 0.04 | 0.04 | 88 | 1017.6 |
| 20260830023551 | 79 | 59 | 1.0 | 2.0 | 0.00 | 0.04 | 0.04 | 89 | 1017.6 |
| 20260830023051 | 79 | 0 | 0.0 | 2.0 | 0.00 | 0.04 | 0.04 | 90 | 1017.7 |
| 20260830022551 | 79 | 0 | 1.0 | 2.0 | 0.00 | 0.04 | 0.04 | 90 | 1017.7 |
| 20260830022045 | 79 | 0 | 1.0 | 2.0 | 0.00 | 0.04 | 0.04 | 90 | 1017.8 |
| 20260830021540 | 79 | 135 | 1.0 | 2.0 | 0.01 | 0.04 | 0.04 | 91 | 1017.9 |
| 20260830020537 | 79 | 0 | 0.0 | 3.0 | 0.02 | 0.04 | 0.04 | 90 | 1018.0 |